Year,Month,Day,Hour,Minute,Value (Times are PST for temperature in C)
2018,12,05,00,00,2.10
2018,12,05,00,01,2.10
2018,12,05,00,02,2.10
2018,12,05,00,03,2.10
2018,12,05,00,04,2.10
2018,12,05,00,05,2.10
2018,12,05,00,06,2.10
2018,12,05,00,07,2.10
2018,12,05,00,08,2.10
2018,12,05,00,09,2.10
2018,12,05,00,10,2.10
2018,12,05,00,11,2.00
2018,12,05,00,12,2.00
2018,12,05,00,13,2.00
2018,12,05,00,14,2.00
2018,12,05,00,15,2.00
2018,12,05,00,16,2.00
2018,12,05,00,17,2.00
2018,12,05,00,18,2.00
2018,12,05,00,19,2.00
2018,12,05,00,20,2.00
2018,12,05,00,21,1.90
2018,12,05,00,22,1.90
2018,12,05,00,23,1.90
2018,12,05,00,24,1.90
2018,12,05,00,25,1.90
2018,12,05,00,26,1.80
2018,12,05,00,27,1.80
2018,12,05,00,28,1.80
2018,12,05,00,29,1.80
2018,12,05,00,30,1.80
2018,12,05,00,31,1.80
2018,12,05,00,32,1.80
2018,12,05,00,33,1.80
2018,12,05,00,34,1.80
2018,12,05,00,35,1.90
2018,12,05,00,36,1.90
2018,12,05,00,37,1.90
2018,12,05,00,38,1.90
2018,12,05,00,39,1.90
2018,12,05,00,40,1.90
2018,12,05,00,41,1.90
2018,12,05,00,42,1.90
2018,12,05,00,43,1.90
2018,12,05,00,44,1.90
2018,12,05,00,45,2.00
2018,12,05,00,46,2.00
2018,12,05,00,47,2.00
2018,12,05,00,48,2.00
2018,12,05,00,49,2.00
2018,12,05,00,50,2.00
2018,12,05,00,51,2.00
2018,12,05,00,52,2.00
2018,12,05,00,53,2.00
2018,12,05,00,54,2.10
2018,12,05,00,55,2.10
2018,12,05,00,56,2.10
2018,12,05,00,57,2.10
2018,12,05,00,58,2.10
2018,12,05,00,59,2.10
2018,12,05,01,00,2.10
2018,12,05,01,01,2.10
2018,12,05,01,02,2.10
2018,12,05,01,03,2.10
2018,12,05,01,04,2.10
2018,12,05,01,05,2.10
2018,12,05,01,06,2.10
2018,12,05,01,07,2.10
2018,12,05,01,08,2.10
2018,12,05,01,09,2.10
2018,12,05,01,10,2.10
2018,12,05,01,11,2.10
2018,12,05,01,12,2.10
2018,12,05,01,13,2.10
2018,12,05,01,14,2.10
2018,12,05,01,15,2.10
2018,12,05,01,16,2.10
2018,12,05,01,17,2.10
2018,12,05,01,18,2.10
2018,12,05,01,19,2.10
2018,12,05,01,20,2.10
2018,12,05,01,21,2.10
2018,12,05,01,22,2.10
2018,12,05,01,23,2.10
2018,12,05,01,24,2.10
2018,12,05,01,25,2.10
2018,12,05,01,26,2.10
2018,12,05,01,27,2.10
2018,12,05,01,28,2.10
2018,12,05,01,29,2.10
2018,12,05,01,30,2.10
2018,12,05,01,31,2.10
2018,12,05,01,32,2.10
2018,12,05,01,33,2.10
2018,12,05,01,34,2.10
2018,12,05,01,35,2.10
2018,12,05,01,36,2.00
2018,12,05,01,37,2.00
2018,12,05,01,38,2.00
2018,12,05,01,39,2.00
2018,12,05,01,40,2.00
2018,12,05,01,41,1.90
2018,12,05,01,42,1.90
2018,12,05,01,43,1.90
2018,12,05,01,44,1.90
2018,12,05,01,45,1.90
2018,12,05,01,46,1.90
2018,12,05,01,47,1.80
2018,12,05,01,48,1.80
2018,12,05,01,49,1.80
2018,12,05,01,50,1.80
2018,12,05,01,51,1.90
2018,12,05,01,52,1.90
2018,12,05,01,53,1.90
2018,12,05,01,54,1.90
2018,12,05,01,55,1.90
2018,12,05,01,56,1.90
2018,12,05,01,57,1.90
2018,12,05,01,58,1.90
2018,12,05,01,59,1.90
2018,12,05,02,00,1.90
2018,12,05,02,01,1.90
2018,12,05,02,02,1.90
2018,12,05,02,03,1.90
2018,12,05,02,04,1.90
2018,12,05,02,05,1.90
2018,12,05,02,06,1.90
2018,12,05,02,07,1.90
2018,12,05,02,08,1.90
2018,12,05,02,09,1.90
2018,12,05,02,10,1.90
2018,12,05,02,11,1.90
2018,12,05,02,12,1.90
2018,12,05,02,13,1.90
2018,12,05,02,14,1.90
2018,12,05,02,15,1.90
2018,12,05,02,16,1.90
2018,12,05,02,17,1.90
2018,12,05,02,18,1.90
2018,12,05,02,19,1.80
2018,12,05,02,20,1.80
2018,12,05,02,21,1.80
2018,12,05,02,22,1.90
2018,12,05,02,23,1.90
2018,12,05,02,24,1.80
2018,12,05,02,25,1.80
2018,12,05,02,26,1.80
2018,12,05,02,27,1.80
2018,12,05,02,28,1.80
2018,12,05,02,29,1.80
2018,12,05,02,30,1.80
2018,12,05,02,31,1.80
2018,12,05,02,32,1.80
2018,12,05,02,33,1.80
2018,12,05,02,34,1.80
2018,12,05,09,42,3.90
2018,12,05,09,43,3.90
2018,12,05,09,44,4.00
2018,12,05,09,45,4.00
2018,12,05,09,46,4.10
2018,12,05,09,47,4.10
2018,12,05,09,48,4.10
2018,12,05,09,49,4.20
2018,12,05,09,50,4.20
2018,12,05,09,51,4.20
2018,12,05,09,52,4.30
2018,12,05,09,53,4.30
2018,12,05,09,54,4.40
2018,12,05,09,55,4.40
2018,12,05,09,56,4.50
2018,12,05,09,57,4.50
2018,12,05,09,58,4.60
2018,12,05,09,59,4.60
2018,12,05,10,00,4.60
2018,12,05,10,01,4.70
2018,12,05,10,02,4.70
2018,12,05,10,03,4.70
2018,12,05,10,04,4.80
2018,12,05,10,05,4.80
2018,12,05,10,06,4.80
2018,12,05,10,07,4.80
2018,12,05,10,08,4.80
2018,12,05,10,09,4.90
2018,12,05,10,10,4.90
2018,12,05,10,11,4.90
2018,12,05,10,12,4.90
2018,12,05,10,13,4.90
2018,12,05,10,14,5.00
2018,12,05,10,15,5.00
2018,12,05,10,16,5.00
2018,12,05,10,17,5.00
2018,12,05,10,18,5.00
2018,12,05,10,19,5.10
2018,12,05,10,20,5.10
2018,12,05,10,21,5.10
2018,12,05,10,22,5.10
2018,12,05,10,23,5.10
2018,12,05,10,24,5.10
2018,12,05,10,25,5.10
2018,12,05,10,26,5.10
2018,12,05,10,27,5.10
2018,12,05,10,28,5.10
2018,12,05,10,29,5.20
2018,12,05,10,30,5.20
2018,12,05,10,31,5.20
2018,12,05,10,32,5.20
2018,12,05,10,33,5.20
2018,12,05,10,34,5.20
2018,12,05,10,35,5.20
2018,12,05,10,36,5.20
2018,12,05,10,37,5.20
2018,12,05,10,38,5.20
2018,12,05,10,39,5.20
2018,12,05,10,40,5.20
2018,12,05,10,41,5.20
2018,12,05,10,42,5.20
2018,12,05,10,43,5.30
2018,12,05,10,44,5.30
2018,12,05,10,45,5.30
2018,12,05,10,46,5.30
2018,12,05,10,47,5.30
2018,12,05,10,48,5.30
2018,12,05,10,49,5.30
2018,12,05,10,50,5.40
2018,12,05,10,51,5.40
2018,12,05,10,52,5.40
2018,12,05,10,53,5.40
2018,12,05,10,54,5.40
2018,12,05,10,55,5.40
2018,12,05,10,56,5.40
2018,12,05,10,57,5.40
2018,12,05,10,58,5.40
2018,12,05,10,59,5.40
2018,12,05,11,00,5.40
2018,12,05,11,01,5.40
2018,12,05,11,02,5.40
2018,12,05,11,03,5.50
2018,12,05,11,04,5.50
2018,12,05,11,05,5.50
2018,12,05,11,06,5.60
2018,12,05,11,07,5.60
2018,12,05,11,08,5.60
2018,12,05,11,09,5.60
2018,12,05,11,10,5.60
2018,12,05,11,11,5.60
2018,12,05,11,12,5.60
2018,12,05,11,13,5.60
2018,12,05,11,14,5.60
2018,12,05,11,15,5.60
2018,12,05,11,16,5.70
2018,12,05,11,17,5.70
2018,12,05,11,18,5.70
2018,12,05,11,19,5.70
2018,12,05,11,20,5.70
2018,12,05,11,21,5.70
2018,12,05,11,22,5.80
2018,12,05,11,23,5.80
2018,12,05,11,24,5.80
2018,12,05,11,25,5.80
2018,12,05,11,26,5.80
2018,12,05,11,27,5.80
2018,12,05,11,28,5.80
2018,12,05,11,29,5.80
2018,12,05,11,30,5.80
2018,12,05,11,31,5.90
2018,12,05,11,32,5.90
2018,12,05,11,33,5.90
2018,12,05,11,34,5.90
2018,12,05,11,35,5.90
2018,12,05,11,36,5.90
2018,12,05,11,37,5.90
2018,12,05,11,38,5.90
2018,12,05,11,39,6.00
2018,12,05,11,40,6.00
2018,12,05,11,41,6.00
2018,12,05,11,42,6.00
2018,12,05,11,43,6.10
2018,12,05,11,44,6.10
2018,12,05,11,45,6.10
2018,12,05,11,46,6.10
2018,12,05,11,47,6.10
2018,12,05,11,48,6.10
2018,12,05,11,49,6.20
2018,12,05,11,50,6.20
2018,12,05,11,51,6.20
2018,12,05,11,52,6.20
2018,12,05,11,53,6.20
2018,12,05,11,54,6.20
2018,12,05,11,55,6.20
2018,12,05,11,56,6.20
2018,12,05,11,57,6.20
2018,12,05,11,58,6.20
2018,12,05,11,59,6.20
2018,12,05,12,00,6.30
2018,12,05,12,01,6.30
2018,12,05,12,02,6.30
2018,12,05,12,03,6.30
2018,12,05,12,04,6.30
2018,12,05,12,05,6.30
2018,12,05,12,06,6.30
2018,12,05,12,07,6.30
2018,12,05,12,08,6.30
2018,12,05,12,09,6.30
2018,12,05,12,10,6.30
2018,12,05,12,11,6.30
2018,12,05,12,12,6.40
2018,12,05,12,13,6.40
2018,12,05,12,14,6.40
2018,12,05,12,15,6.40
2018,12,05,12,16,6.40
2018,12,05,12,17,6.40
2018,12,05,12,18,6.40
2018,12,05,12,19,6.40
2018,12,05,12,20,6.40
2018,12,05,12,21,6.40
2018,12,05,12,22,6.40
2018,12,05,12,23,6.50
2018,12,05,12,24,6.50
2018,12,05,12,25,6.50
2018,12,05,12,26,6.50
2018,12,05,12,27,6.50
2018,12,05,12,28,6.50
2018,12,05,12,29,6.60
2018,12,05,12,30,6.60
2018,12,05,12,31,6.60
2018,12,05,12,32,6.60
2018,12,05,12,33,6.60
2018,12,05,12,34,6.60
2018,12,05,12,35,6.60
2018,12,05,12,36,6.60
2018,12,05,12,37,6.60
2018,12,05,12,38,6.60
2018,12,05,12,39,6.70
2018,12,05,12,40,6.70
2018,12,05,12,41,6.70
2018,12,05,12,42,6.70
2018,12,05,12,43,6.70
2018,12,05,12,44,6.70
2018,12,05,12,45,6.70
2018,12,05,12,46,6.70
2018,12,05,12,47,6.80
2018,12,05,12,48,6.80
2018,12,05,12,49,6.80
2018,12,05,12,50,6.80
2018,12,05,12,51,6.80
2018,12,05,12,52,6.90
2018,12,05,12,53,6.90
2018,12,05,12,54,6.90
2018,12,05,12,55,6.90
2018,12,05,12,56,6.90
2018,12,05,12,57,6.90
2018,12,05,12,58,6.90
2018,12,05,12,59,6.90
2018,12,05,13,00,6.90
2018,12,05,13,01,6.90
2018,12,05,13,02,7.00
2018,12,05,13,03,7.00
2018,12,05,13,04,7.00
2018,12,05,13,05,7.10
2018,12,05,13,06,7.10
2018,12,05,13,07,7.20
2018,12,05,13,08,7.20
2018,12,05,13,09,7.20
2018,12,05,13,10,7.20
2018,12,05,13,11,7.20
2018,12,05,13,12,7.20
2018,12,05,13,13,7.20
2018,12,05,13,14,7.20
2018,12,05,13,15,7.20
2018,12,05,13,16,7.20
2018,12,05,13,17,7.20
2018,12,05,13,18,7.20
2018,12,05,13,19,7.20
2018,12,05,13,20,7.20
2018,12,05,13,21,7.20
2018,12,05,13,22,7.20
2018,12,05,13,23,7.20
2018,12,05,13,24,7.20
2018,12,05,13,25,7.20
2018,12,05,13,26,7.20
2018,12,05,13,27,7.20
2018,12,05,13,28,7.20
2018,12,05,13,29,7.20
2018,12,05,13,30,7.30
2018,12,05,13,31,7.30
2018,12,05,13,32,7.30
2018,12,05,13,33,7.30
2018,12,05,13,34,7.30
2018,12,05,13,35,7.30
2018,12,05,13,36,7.30
2018,12,05,13,37,7.30
2018,12,05,13,38,7.30
2018,12,05,13,39,7.30
2018,12,05,13,40,7.30
2018,12,05,13,41,7.30
2018,12,05,13,42,7.30
2018,12,05,13,43,7.30
2018,12,05,13,44,7.30
2018,12,05,13,45,7.30
2018,12,05,13,46,7.30
2018,12,05,13,47,7.30
2018,12,05,13,48,7.30
2018,12,05,13,49,7.30
2018,12,05,13,50,7.30
2018,12,05,13,51,7.20
2018,12,05,13,52,7.20
2018,12,05,13,53,7.20
2018,12,05,13,54,7.20
2018,12,05,13,55,7.20
2018,12,05,13,56,7.20
2018,12,05,13,57,7.20
2018,12,05,13,58,7.20
2018,12,05,13,59,7.20
2018,12,05,14,00,7.20
2018,12,05,14,01,7.20
2018,12,05,14,02,7.20
2018,12,05,14,03,7.20
2018,12,05,14,04,7.20
2018,12,05,14,05,7.20
2018,12,05,14,06,7.20
2018,12,05,14,07,7.20
2018,12,05,14,08,7.20
2018,12,05,14,09,7.20
2018,12,05,14,10,7.20
2018,12,05,14,11,7.20
2018,12,05,14,12,7.20
2018,12,05,14,13,7.20
2018,12,05,14,14,7.20
2018,12,05,14,15,7.20
2018,12,05,14,16,7.20
2018,12,05,14,17,7.20
2018,12,05,14,18,7.20
2018,12,05,14,19,7.20
2018,12,05,14,20,7.20
2018,12,05,14,21,7.20
2018,12,05,14,22,7.20
2018,12,05,14,23,7.20
2018,12,05,14,24,7.20
2018,12,05,14,25,7.20
2018,12,05,14,26,7.20
2018,12,05,14,27,7.20
2018,12,05,14,28,7.30
2018,12,05,14,29,7.30
2018,12,05,14,30,7.30
2018,12,05,14,31,7.30
2018,12,05,14,32,7.30
2018,12,05,14,33,7.40
2018,12,05,14,34,7.40
2018,12,05,14,35,7.40
2018,12,05,14,36,7.40
2018,12,05,14,37,7.40
2018,12,05,14,38,7.40
2018,12,05,14,39,7.40
2018,12,05,14,40,7.50
2018,12,05,14,41,7.50
2018,12,05,14,42,7.50
2018,12,05,14,43,7.50
2018,12,05,14,44,7.50
2018,12,05,14,45,7.60
2018,12,05,14,46,7.60
2018,12,05,14,47,7.60
2018,12,05,14,48,7.60
2018,12,05,14,49,7.70
2018,12,05,14,50,7.70
2018,12,05,14,51,7.70
2018,12,05,14,52,7.70
2018,12,05,14,53,7.70
2018,12,05,14,54,7.70
2018,12,05,14,55,7.70
2018,12,05,14,56,7.80
2018,12,05,14,57,7.80
2018,12,05,14,58,7.80
2018,12,05,14,59,7.80
2018,12,05,15,00,7.80
2018,12,05,15,01,7.80
2018,12,05,15,02,7.80
2018,12,05,15,03,7.90
2018,12,05,15,04,7.90
2018,12,05,15,05,7.90
2018,12,05,15,06,8.00
2018,12,05,15,07,7.90
2018,12,05,15,08,7.90
2018,12,05,15,09,7.90
2018,12,05,15,10,7.90
2018,12,05,15,11,7.80
2018,12,05,15,12,7.80
2018,12,05,15,13,7.80
2018,12,05,15,14,7.70
2018,12,05,15,15,7.70
2018,12,05,15,16,7.70
2018,12,05,15,17,7.70
2018,12,05,15,18,7.60
2018,12,05,15,19,7.60
2018,12,05,15,20,7.50
2018,12,05,15,21,7.50
2018,12,05,15,22,7.40
2018,12,05,15,23,7.40
2018,12,05,15,24,7.40
2018,12,05,15,25,7.40
2018,12,05,15,26,7.40
2018,12,05,15,27,7.40
2018,12,05,15,28,7.30
2018,12,05,15,29,7.30
2018,12,05,15,30,7.30
2018,12,05,15,31,7.30
2018,12,05,15,32,7.30
2018,12,05,15,33,7.30
2018,12,05,15,34,7.30
2018,12,05,15,35,7.30
2018,12,05,15,36,7.20
2018,12,05,15,37,7.20
2018,12,05,15,38,7.20
2018,12,05,15,39,7.20
2018,12,05,15,40,7.10
2018,12,05,15,41,7.10
2018,12,05,15,42,7.10
2018,12,05,15,43,7.10
2018,12,05,15,44,7.10
2018,12,05,15,45,7.10
2018,12,05,15,46,7.00
2018,12,05,15,47,7.00
2018,12,05,15,48,7.00
2018,12,05,15,49,7.00
2018,12,05,15,50,7.00
2018,12,05,15,51,7.00
2018,12,05,15,52,6.90
2018,12,05,15,53,6.90
2018,12,05,15,54,6.90
2018,12,05,15,55,6.90
2018,12,05,15,56,6.90
2018,12,05,15,57,6.90
2018,12,05,15,58,6.90
2018,12,05,15,59,6.90
2018,12,05,16,00,6.80
2018,12,05,16,01,6.80
2018,12,05,16,02,6.80
2018,12,05,16,03,6.80
2018,12,05,16,04,6.80
2018,12,05,16,05,6.80
2018,12,05,16,06,6.80
2018,12,05,16,07,6.80
2018,12,05,16,08,6.80
2018,12,05,16,09,6.70
2018,12,05,16,10,6.70
2018,12,05,16,11,6.70
2018,12,05,16,12,6.70
2018,12,05,16,13,6.70
2018,12,05,16,14,6.70
2018,12,05,16,15,6.70
2018,12,05,16,16,6.70
2018,12,05,16,17,6.70
2018,12,05,16,18,6.70
2018,12,05,16,19,6.70
2018,12,05,16,20,6.70
2018,12,05,16,21,6.70
2018,12,05,16,22,6.70
2018,12,05,16,23,6.70
2018,12,05,16,24,6.60
2018,12,05,16,25,6.60
2018,12,05,16,26,6.60
2018,12,05,16,27,6.60
2018,12,05,16,28,6.60
2018,12,05,16,29,6.60
2018,12,05,16,30,6.60
2018,12,05,16,31,6.60
2018,12,05,16,32,6.60
2018,12,05,16,33,6.50
2018,12,05,16,34,6.50
2018,12,05,16,35,6.50
2018,12,05,16,36,6.50
2018,12,05,16,37,6.40
2018,12,05,16,38,6.40
2018,12,05,16,39,6.40
2018,12,05,16,40,6.40
2018,12,05,16,41,6.30
2018,12,05,16,42,6.30
2018,12,05,16,43,6.30
2018,12,05,16,44,6.30
2018,12,05,16,45,6.20
2018,12,05,16,46,6.20
2018,12,05,16,47,6.20
2018,12,05,16,48,6.10
2018,12,05,16,49,6.10
2018,12,05,16,50,6.00
2018,12,05,16,51,6.00
2018,12,05,16,52,6.00
2018,12,05,16,53,5.90
2018,12,05,16,54,5.90
2018,12,05,16,55,5.90
2018,12,05,16,56,5.90
2018,12,05,16,57,5.80
2018,12,05,16,58,5.80
2018,12,05,16,59,5.80
2018,12,05,17,00,5.70
2018,12,05,17,01,5.70
2018,12,05,17,02,5.60
2018,12,05,17,03,5.60
2018,12,05,17,04,5.50
2018,12,05,17,05,5.50
2018,12,05,17,06,5.40
2018,12,05,17,07,5.40
2018,12,05,17,08,5.40
2018,12,05,17,09,5.40
2018,12,05,17,10,5.40
2018,12,05,17,11,5.40
2018,12,05,17,12,5.40
2018,12,05,17,13,5.40
2018,12,05,17,14,5.40
2018,12,05,17,15,5.40
2018,12,05,17,16,5.40
2018,12,05,17,17,5.40
2018,12,05,17,18,5.40
2018,12,05,17,19,5.40
2018,12,05,17,20,5.40
2018,12,05,17,21,5.40
2018,12,05,17,22,5.40
2018,12,05,17,23,5.40
2018,12,05,17,24,5.40
2018,12,05,17,25,5.40
2018,12,05,17,26,5.40
2018,12,05,17,27,5.40
2018,12,05,17,28,5.40
2018,12,05,17,29,5.40
2018,12,05,17,30,5.40
2018,12,05,17,31,5.40
2018,12,05,17,32,5.40
2018,12,05,17,33,5.40
2018,12,05,17,34,5.40
2018,12,05,17,35,5.40
2018,12,05,17,36,5.40
2018,12,05,17,37,5.40
2018,12,05,17,38,5.40
2018,12,05,17,39,5.40
2018,12,05,17,40,5.40
2018,12,05,17,41,5.40
2018,12,05,17,42,5.50
2018,12,05,17,43,5.50
2018,12,05,17,44,5.50
2018,12,05,17,45,5.50
2018,12,05,17,46,5.50
2018,12,05,17,47,5.50
2018,12,05,17,48,5.50
2018,12,05,17,49,5.50
2018,12,05,17,50,5.50
2018,12,05,17,51,5.50
2018,12,05,17,52,5.40
2018,12,05,17,53,5.40
2018,12,05,17,54,5.40
2018,12,05,17,55,5.40
2018,12,05,17,56,5.40
2018,12,05,17,57,5.40
2018,12,05,17,58,5.40
2018,12,05,17,59,5.40
2018,12,05,18,00,5.30
2018,12,05,18,01,5.30
2018,12,05,18,02,5.20
2018,12,05,18,03,5.20
2018,12,05,18,04,5.20
2018,12,05,18,05,5.10
2018,12,05,18,06,5.10
2018,12,05,18,07,5.00
2018,12,05,18,08,5.00
2018,12,05,18,09,4.90
2018,12,05,18,10,4.90
2018,12,05,18,11,4.90
2018,12,05,18,12,4.90
2018,12,05,18,13,4.90
2018,12,05,18,14,4.90
2018,12,05,18,15,4.80
2018,12,05,18,16,4.80
2018,12,05,18,17,4.80
2018,12,05,18,18,4.70
2018,12,05,18,19,4.70
2018,12,05,18,20,4.70
2018,12,05,18,21,4.60
2018,12,05,18,22,4.60
2018,12,05,18,23,4.60
2018,12,05,18,24,4.60
2018,12,05,18,25,4.60
2018,12,05,18,26,4.50
2018,12,05,18,27,4.50
2018,12,05,18,28,4.50
2018,12,05,18,29,4.50
2018,12,05,18,30,4.50
2018,12,05,18,31,4.50
2018,12,05,18,32,4.50
2018,12,05,18,33,4.50
2018,12,05,18,34,4.50
2018,12,05,18,35,4.50
2018,12,05,18,36,4.50
2018,12,05,18,37,4.50
2018,12,05,18,38,4.50
2018,12,05,18,39,4.40
2018,12,05,18,40,4.50
2018,12,05,18,41,4.40
2018,12,05,18,42,4.50
2018,12,05,18,43,4.50
2018,12,05,18,44,4.50
2018,12,05,18,45,4.40
2018,12,05,18,46,4.40
2018,12,05,18,47,4.40
2018,12,05,18,48,4.40
2018,12,05,18,49,4.50
2018,12,05,18,50,4.50
2018,12,05,18,51,4.50
2018,12,05,18,52,4.50
2018,12,05,18,53,4.60
2018,12,05,18,54,4.60
2018,12,05,18,55,4.60
2018,12,05,18,56,4.70
2018,12,05,18,57,4.70
2018,12,05,18,58,4.70
2018,12,05,18,59,4.70
2018,12,05,19,00,4.60
2018,12,05,19,01,4.60
2018,12,05,19,02,4.60
2018,12,05,19,03,4.60
2018,12,05,19,04,4.60
2018,12,05,19,05,4.50
2018,12,05,19,06,4.50
2018,12,05,19,07,4.40
2018,12,05,19,08,4.40
2018,12,05,19,09,4.30
2018,12,05,19,10,4.30
2018,12,05,19,11,4.30
2018,12,05,19,12,4.20
2018,12,05,19,13,4.20
2018,12,05,19,14,4.20
2018,12,05,19,15,4.10
2018,12,05,19,16,4.10
2018,12,05,19,17,4.10
2018,12,05,19,18,4.10
2018,12,05,19,19,4.00
2018,12,05,19,20,4.00
2018,12,05,19,21,4.00
2018,12,05,19,22,3.90
2018,12,05,19,23,3.90
2018,12,05,19,24,3.90
2018,12,05,19,25,3.80
2018,12,05,19,26,3.80
2018,12,05,19,27,3.80
2018,12,05,19,28,3.80
2018,12,05,19,29,3.70
2018,12,05,19,30,3.70
2018,12,05,19,31,3.70
2018,12,05,19,32,3.70
2018,12,05,19,33,3.70
2018,12,05,19,34,3.70
2018,12,05,19,35,3.70
2018,12,05,19,36,3.70
2018,12,05,19,37,3.60
2018,12,05,19,38,3.60
2018,12,05,19,39,3.60
2018,12,05,19,40,3.60
2018,12,05,19,41,3.60
2018,12,05,19,42,3.60
2018,12,05,19,43,3.60
2018,12,05,19,44,3.60
2018,12,05,19,45,3.60
2018,12,05,19,46,3.60
2018,12,05,19,47,3.60
2018,12,05,19,48,3.60
2018,12,05,19,49,3.60
2018,12,05,19,50,3.60
2018,12,05,19,51,3.60
2018,12,05,19,52,3.60
2018,12,05,19,53,3.60
2018,12,05,19,54,3.70
2018,12,05,19,55,3.70
2018,12,05,19,56,3.60
2018,12,05,19,57,3.60
2018,12,05,19,58,3.60
2018,12,05,19,59,3.60
2018,12,05,20,00,3.60
2018,12,05,20,01,3.50
2018,12,05,20,02,3.50
2018,12,05,20,03,3.50
2018,12,05,20,04,3.40
2018,12,05,20,05,3.40
2018,12,05,20,06,3.40
2018,12,05,20,07,3.40
2018,12,05,20,08,3.30
2018,12,05,20,09,3.30
2018,12,05,20,10,3.30
2018,12,05,20,11,3.30
2018,12,05,20,12,3.30
2018,12,05,20,13,3.30
2018,12,05,20,14,3.30
2018,12,05,20,15,3.30
2018,12,05,20,16,3.30
2018,12,05,20,17,3.20
2018,12,05,20,18,3.20
2018,12,05,20,19,3.20
2018,12,05,20,20,3.20
2018,12,05,20,21,3.10
2018,12,05,20,22,3.10
2018,12,05,20,23,3.10
2018,12,05,20,24,3.10
2018,12,05,20,25,3.10
2018,12,05,20,26,3.10
2018,12,05,20,27,3.10
2018,12,05,20,28,3.10
2018,12,05,20,29,3.10
2018,12,05,20,30,3.20
2018,12,05,20,31,3.20
2018,12,05,20,32,3.20
2018,12,05,20,33,3.20
2018,12,05,20,34,3.20
2018,12,05,20,35,3.20
2018,12,05,20,36,3.20
2018,12,05,20,37,3.20
2018,12,05,20,38,3.20
2018,12,05,20,39,3.20
2018,12,05,20,40,3.20
2018,12,05,20,41,3.20
2018,12,05,20,42,3.20
2018,12,05,20,43,3.20
2018,12,05,20,44,3.20
2018,12,05,20,45,3.20
2018,12,05,20,46,3.20
2018,12,05,20,47,3.20
2018,12,05,20,48,3.20
2018,12,05,20,49,3.30
2018,12,05,20,50,3.30
2018,12,05,20,51,3.30
2018,12,05,20,52,3.30
2018,12,05,20,53,3.30
2018,12,05,20,54,3.30
2018,12,05,20,55,3.30
2018,12,05,20,56,3.30
2018,12,05,20,57,3.30
2018,12,05,20,58,3.30
2018,12,05,20,59,3.30
2018,12,05,21,00,3.30
2018,12,05,21,01,3.30
2018,12,05,21,02,3.30
2018,12,05,21,03,3.30
2018,12,05,21,04,3.30
2018,12,05,21,05,3.30
2018,12,05,21,06,3.30
2018,12,05,21,07,3.30
2018,12,05,21,08,3.30
2018,12,05,21,09,3.30
2018,12,05,21,10,3.30
2018,12,05,21,11,3.30
2018,12,05,21,12,3.30
2018,12,05,21,13,3.30
2018,12,05,21,14,3.20
2018,12,05,21,15,3.20
2018,12,05,21,16,3.20
2018,12,05,21,17,3.20
2018,12,05,21,18,3.20
2018,12,05,21,19,3.20
2018,12,05,21,20,3.30
2018,12,05,21,21,3.30
2018,12,05,21,22,3.30
2018,12,05,21,23,3.30
2018,12,05,21,24,3.30
2018,12,05,21,25,3.30
2018,12,05,21,26,3.30
2018,12,05,21,27,3.30
2018,12,05,21,28,3.30
2018,12,05,21,29,3.40
2018,12,05,21,30,3.40
2018,12,05,21,31,3.40
2018,12,05,21,32,3.40
2018,12,05,21,33,3.40
2018,12,05,21,34,3.40
2018,12,05,21,35,3.40
2018,12,05,21,36,3.40
2018,12,05,21,37,3.40
2018,12,05,21,38,3.40
2018,12,05,21,39,3.40
2018,12,05,21,40,3.40
2018,12,05,21,41,3.40
2018,12,05,21,42,3.40
2018,12,05,21,43,3.40
2018,12,05,21,44,3.40
2018,12,05,21,45,3.40
2018,12,05,21,46,3.40
2018,12,05,21,47,3.40
2018,12,05,21,48,3.40
2018,12,05,21,49,3.40
2018,12,05,21,50,3.30
2018,12,05,21,51,3.30
2018,12,05,21,52,3.30
2018,12,05,21,53,3.30
2018,12,05,21,54,3.30
2018,12,05,21,55,3.30
2018,12,05,21,56,3.20
2018,12,05,21,57,3.20
2018,12,05,21,58,3.20
2018,12,05,21,59,3.20
2018,12,05,22,00,3.10
2018,12,05,22,01,3.00
2018,12,05,22,02,2.90
2018,12,05,22,03,2.90
2018,12,05,22,04,2.90
2018,12,05,22,05,2.80
2018,12,05,22,06,2.80
2018,12,05,22,07,2.80
2018,12,05,22,08,2.80
2018,12,05,22,09,2.80
2018,12,05,22,10,2.80
2018,12,05,22,11,2.80
2018,12,05,22,12,2.80
2018,12,05,22,13,2.80
2018,12,05,22,14,2.80
2018,12,05,22,15,2.80
2018,12,05,22,16,2.80
2018,12,05,22,17,2.80
2018,12,05,22,18,2.80
2018,12,05,22,19,2.80
2018,12,05,22,20,2.80
2018,12,05,22,21,2.80
2018,12,05,22,22,2.80
2018,12,05,22,23,2.80
2018,12,05,22,24,2.80
2018,12,05,22,25,2.80
2018,12,05,22,26,2.80
2018,12,05,22,27,2.80
2018,12,05,22,28,2.80
2018,12,05,22,29,2.80
2018,12,05,22,30,2.80
2018,12,05,22,31,2.80
2018,12,05,22,32,2.80
2018,12,05,22,33,2.80
2018,12,05,22,34,2.80
2018,12,05,22,35,2.80
2018,12,05,22,36,2.80
2018,12,05,22,37,2.80
2018,12,05,22,38,2.80
2018,12,05,22,39,2.80
2018,12,05,22,40,2.70
2018,12,05,22,41,2.70
2018,12,05,22,42,2.70
2018,12,05,22,43,2.70
2018,12,05,22,44,2.70
2018,12,05,22,45,2.70
2018,12,05,22,46,2.70
2018,12,05,22,47,2.70
2018,12,05,22,48,2.70
2018,12,05,22,49,2.70
2018,12,05,22,50,2.70
2018,12,05,22,51,2.70
2018,12,05,22,52,2.70
2018,12,05,22,53,2.70
2018,12,05,22,54,2.70
2018,12,05,22,55,2.70
2018,12,05,22,56,2.70
2018,12,05,22,57,2.70
2018,12,05,22,58,2.70
2018,12,05,22,59,2.70
2018,12,05,23,00,2.70
2018,12,05,23,01,2.70
2018,12,05,23,02,2.70
2018,12,05,23,03,2.70
2018,12,05,23,04,2.70
2018,12,05,23,05,2.70
2018,12,05,23,06,2.70
2018,12,05,23,07,2.70
2018,12,05,23,08,2.70
2018,12,05,23,09,2.70
2018,12,05,23,10,2.70
2018,12,05,23,11,2.70
2018,12,05,23,12,2.70
2018,12,05,23,13,2.70
2018,12,05,23,14,2.70
2018,12,05,23,15,2.70
2018,12,05,23,16,2.70
2018,12,05,23,17,2.70
2018,12,05,23,18,2.70
2018,12,05,23,19,2.70
2018,12,05,23,20,2.70
2018,12,05,23,21,2.70
2018,12,05,23,22,2.70
2018,12,05,23,23,2.70
2018,12,05,23,24,2.70
2018,12,05,23,25,2.70
2018,12,05,23,26,2.70
2018,12,05,23,27,2.80
2018,12,05,23,28,2.80
2018,12,05,23,29,2.80
2018,12,05,23,30,2.70
2018,12,05,23,31,2.70
2018,12,05,23,32,2.70
2018,12,05,23,33,2.70
2018,12,05,23,34,2.70
2018,12,05,23,35,2.70
2018,12,05,23,36,2.70
2018,12,05,23,37,2.70
2018,12,05,23,38,2.70
2018,12,05,23,39,2.70
2018,12,05,23,40,2.70
2018,12,05,23,41,2.70
2018,12,05,23,42,2.70
2018,12,05,23,43,2.60
2018,12,05,23,44,2.60
2018,12,05,23,45,2.60
2018,12,05,23,46,2.60
2018,12,05,23,47,2.60
2018,12,05,23,48,2.60
2018,12,05,23,49,2.60
2018,12,05,23,50,2.60
2018,12,05,23,51,2.60
2018,12,05,23,52,2.60
2018,12,05,23,53,2.70
2018,12,05,23,54,2.70
2018,12,05,23,55,2.70
2018,12,05,23,56,2.70
2018,12,05,23,57,2.70
2018,12,05,23,58,2.70
2018,12,05,23,59,2.70
